Hamilton Island, Australia

7:58 AM AEST on December 12, 2017 (GMT +1000)
Hamilton Island

Weather History for YBHM - October, 2013

Change the Weather History Date:

Saturday, October 5, 2013

  Actual Average Record
Temperature  
Mean Temperature 74 °F -  
Max Temperature 78 °F - - ()
Min Temperature 71 °F - - ()
Cooling Degree Days 10    
Growing Degree Days 24 (Base 50)    
Moisture  
Dew Point 64 °F    
Average Humidity 70    
Maximum Humidity 88    
Minimum Humidity 53    
Precipitation  
Precipitation 0.00 in - - ()
Sea Level Pressure  
Sea Level Pressure 30.00 in    
Wind  
Wind Speed 16 mph ()    
Max Wind Speed 24 mph    
Max Gust Speed -    
T = Trace of Precipitation, MM = Missing Value Source: Averaged Metar Reports

Daily Weather History Graph

Daily Weather History Graph

Search for Another Location

Airport or City:

Trip Planner

Search our weather history database for the weather conditions in past years. The results will help you decide how hot, cold, wet, or windy it might be!

Date:

Astronomy

Oct. 05, 2013 Rise Set
Actual Time 5:42 AM AEST 6:03 PM AEST
Civil Twilight 5:20 AM AEST 6:25 PM AEST
Nautical Twilight 4:54 AM AEST 6:51 PM AEST
Astronomical Twilight 4:28 AM AEST 7:17 PM AEST
Moon 5:30 AM AEST (10/5) 6:15 PM AEST (10/5)
Length of Visible Light 13h 05m
Length of Day
12h 21m
New Moon, 0% of the Moon is Illuminated
Oct 5
New Moon
Oct 12
First Quarter
Oct 19
Full
Oct 27
Last Quarter
Nov 3
New

Hourly Weather History & Observations

Time (AEST) Temp. Dew Point Humidity Pressure Visibility Wind Dir Wind Speed Gust Speed Precip Events Conditions
12:00 AM 72 °F 69 °F 85% 30.02 in - ESE 15.0 mph - -  
12:00 AM 71.6 °F 68.0 °F 88% 30.01 in - ESE 15.0 mph - N/A   Unknown
12:30 AM 71.6 °F 68.0 °F 88% 30.01 in - ESE 16.1 mph - N/A   Unknown
1:00 AM 71.6 °F 68.0 °F 88% 30.01 in - ESE 16.1 mph - N/A   Unknown
1:30 AM 73.4 °F 68.0 °F 83% 29.98 in - ESE 15.0 mph - N/A   Unknown
2:00 AM 73.4 °F 68.0 °F 83% 29.98 in - ESE 13.8 mph - N/A   Unknown
2:30 AM 73.4 °F 68.0 °F 83% 29.98 in - ESE 12.7 mph - N/A   Unknown
3:00 AM 72 °F 68 °F 83% 29.97 in - ESE 15.0 mph - -  
3:00 AM 73.4 °F 68.0 °F 83% 29.98 in - ESE 15.0 mph - N/A   Unknown
3:30 AM 71.6 °F 68.0 °F 88% 29.98 in - ESE 16.1 mph - N/A   Unknown
4:00 AM 71.6 °F 68.0 °F 88% 29.98 in - SE 16.1 mph - N/A   Unknown
4:30 AM 71.6 °F 68.0 °F 88% 29.98 in - SE 15.0 mph - N/A   Unknown
5:00 AM 73.4 °F 68.0 °F 83% 29.98 in - ESE 16.1 mph - N/A   Unknown
5:30 AM 73.4 °F 68.0 °F 83% 29.98 in - SE 15.0 mph - N/A   Unknown
6:00 AM 73 °F 69 °F 82% 30.01 in - SE 17.3 mph - -  
6:00 AM 73.4 °F 68.0 °F 83% 30.01 in - SE 17.3 mph - N/A   Unknown
6:30 AM 73.4 °F 68.0 °F 83% 30.01 in - ESE 17.3 mph - N/A   Unknown
7:00 AM 75.2 °F 66.2 °F 73% 30.01 in - ESE 21.9 mph - N/A   Unknown
7:30 AM 75.2 °F 68.0 °F 78% 30.04 in - ESE 21.9 mph - N/A   Unknown
8:00 AM 75.2 °F 64.4 °F 69% 30.04 in - ESE 24.2 mph - N/A   Unknown
8:30 AM 75.2 °F 66.2 °F 73% 30.06 in - ESE 23.0 mph - N/A   Unknown
9:00 AM 76 °F 66 °F 64% 30.07 in - ESE 23.0 mph - -  
9:00 AM 77.0 °F 66.2 °F 69% 30.06 in - ESE 23.0 mph - N/A   Unknown
9:30 AM 78.8 °F 68.0 °F 69% 30.06 in - ESE 23.0 mph - N/A   Unknown
10:00 AM 78.8 °F 66.2 °F 65% 30.06 in - East 23.0 mph - N/A   Unknown
10:30 AM 77.0 °F 62.6 °F 61% 30.06 in - ESE 23.0 mph - N/A   Unknown
11:00 AM 77.0 °F 60.8 °F 57% 30.06 in - ESE 23.0 mph - N/A   Unknown
11:30 AM 78.8 °F 64.4 °F 61% 30.04 in - East 21.9 mph - N/A   Unknown
12:00 PM 77.0 °F 60.8 °F 57% 30.04 in - ESE 19.6 mph - N/A   Unknown
12:30 PM 77.0 °F 62.6 °F 61% 30.01 in - East 20.7 mph - N/A   Unknown
1:00 PM 77.0 °F 62.6 °F 61% 30.01 in - East 20.7 mph - N/A   Unknown
1:30 PM 77.0 °F 60.8 °F 57% 29.98 in - East 20.7 mph - N/A   Unknown
2:00 PM 77.0 °F 62.6 °F 61% 29.98 in - East 20.7 mph - N/A   Unknown
2:30 PM 77.0 °F 62.6 °F 61% 29.98 in - East 19.6 mph - N/A   Unknown
3:00 PM 76 °F 62 °F 53% 29.97 in - East 19.6 mph - -  
3:00 PM 75.2 °F 62.6 °F 65% 29.98 in - East 19.6 mph - N/A   Unknown
3:30 PM 75.2 °F 62.6 °F 65% 29.95 in - East 20.7 mph - N/A   Unknown
4:00 PM 75.2 °F 60.8 °F 61% 29.95 in - East 18.4 mph - N/A   Unknown
4:30 PM 73.4 °F 60.8 °F 65% 29.95 in - East 18.4 mph - N/A   Unknown
5:00 PM 73.4 °F 62.6 °F 69% 29.95 in - East 18.4 mph - N/A   Unknown
5:30 PM 73.4 °F 60.8 °F 65% 29.98 in - East 19.6 mph - N/A   Unknown
6:00 PM 73 °F 59 °F 53% 29.98 in - East 19.6 mph - -  
6:00 PM 73.4 °F 59.0 °F 61% 29.98 in - East 19.6 mph - N/A   Unknown
6:30 PM 73.4 °F 60.8 °F 65% 29.98 in - East 20.7 mph - N/A   Unknown
7:00 PM 73.4 °F 60.8 °F 65% 29.98 in - East 21.9 mph - N/A   Unknown
7:30 PM 73.4 °F 62.6 °F 69% 29.98 in - East 19.6 mph - N/A   Unknown
8:00 PM 73.4 °F 60.8 °F 65% 30.01 in - East 20.7 mph - N/A   Unknown
8:30 PM 73.4 °F 62.6 °F 69% 30.01 in - East 18.4 mph - N/A   Unknown
9:00 PM 73 °F 60 °F 55% 30.02 in - East 18.4 mph - -  
9:00 PM 73.4 °F 60.8 °F 65% 30.01 in - East 18.4 mph - N/A   Unknown
9:30 PM 73.4 °F 60.8 °F 65% 30.01 in - East 16.1 mph - N/A   Unknown
10:00 PM 73.4 °F 60.8 °F 65% 30.04 in - East 17.3 mph - N/A   Unknown
10:30 PM 73.4 °F 60.8 °F 65% 30.01 in - East 15.0 mph - N/A   Unknown
11:00 PM 71.6 °F 60.8 °F 69% 30.01 in - East 12.7 mph - N/A   Unknown
11:30 PM 71.6 °F 59.0 °F 64% 30.01 in - East 13.8 mph - N/A   Unknown